Weather Roundup
Issued by NWS

Home | Current Version | Previous Version | Text Only | Print | Product List | Glossary On
Versions: 1 2 3 4 5 6 7 8 9 10 11 12 13 14 15 16 17 18 19 20 21 22 23 24 25 26 27 28 29 30 31 32 33 34 35 36 37 38 39 40 41 42 43 44 45 46 47 48 49 50
000
NZUS93 KARX 030210
HRRWXR

CURRENT HOURLY OBSERVATIONS ACROSS
MUCH OF THE UPPER MISSISSIPPI VALLEY
NATIONAL WEATHER SERVICE LA CROSSE WI
900 PM CDT THU JUL 02 2015


...SOUTHEAST MINNESOTA...


CITY           SKY/WX    TMP DP  RH WIND       PRES   REMARKS
ROCHESTER      PTCLDY    66  55  67 SE5       30.00S
ROCHESTER/MAYO FAIR      69  52  53 SE5       30.00R
WINONA         PTCLDY    68  57  68 CALM      29.98S
AUSTIN         MOCLDY    66  57  72 CALM      29.99S
ALBERT LEA     MOCLDY    66  55  68 CALM      29.99R
DODGE CENTER   PTCLDY    66  59  77 SE3       30.00S
PRESTON        PTCLDY    65  55  70 CALM      30.01R
OWATONNA       MOCLDY    66  57  72 CALM      29.99S
FARIBAULT      MOCLDY    66  59  77 CALM      29.99S
$$

...ELSEWHERE IN MINNESOTA...


CITY           SKY/WX    TMP DP  RH WIND       PRES   REMARKS
MINNEAPOLIS    MOCLDY    73  53  49 SW5       29.97S
INTNL FALLS    MOCLDY    67  57  70 SW6       29.89S
DULUTH         PTCLDY    69  57  65 SW7       29.95S
RED WING       PTCLDY    66  59  77 CALM      29.97R
REDWOOD FALLS  PTCLDY    68  55  63 SE5       29.96F
MANKATO        MOCLDY    70  55  60 E5        29.98S
WORTHINGTON    MOCLDY    64  50  59 S3        30.00R
FAIRMONT       PTCLDY    64  48  55 S5        29.99R
$$

...SOUTHWEST WISCONSIN...


CITY           SKY/WX    TMP DP  RH WIND       PRES   REMARKS
LA CROSSE      PTCLDY    68  55  63 E5        29.97S
PRAIRIE DU CHI MOCLDY    63  56  76 CALM      29.98S
BOSCOBEL       MOCLDY    62  57  83 CALM      29.99R
LONE ROCK      MOCLDY    62  55  77 CALM      29.99S
PLATTEVILLE    MOCLDY    64  54  70 CALM      29.99S
FORT MC COY    PTCLDY    62  52  71 CALM      30.00S
CAMP DOUGLAS   CLEAR     58  58 100 E1        29.99S
VIROQUA        FAIR      63  53  68 SE5       30.00S
WIS DELLS      PTCLDY    61  53  73 CALM      30.00R
$$

...ELSEWHERE IN WISCONSIN...


CITY           SKY/WX    TMP DP  RH WIND       PRES   REMARKS
MILWAUKEE      MOCLDY    57  46  66 NE5       30.01R
MADISON        MOCLDY    63  48  58 E8        29.99R
GREEN BAY      CLEAR     64  53  67 CALM      30.01S
EAU CLAIRE     CLEAR     67  56  67 CALM      29.98R
BLACK RVR FLS  FAIR      60  55  85 CALM      29.98F
MEDFORD        PTCLDY    58  54  86 CALM      30.01S
WAUSAU         CLEAR     66  50  56 SE6       29.99S
WIS RAPIDS     CLEAR     61  52  72 CALM      30.01S
MARSHFIELD     CLEAR     66  50  56 S3        30.00S
RICE LAKE      CLEAR     65  57  75 CALM      30.00R
$$

...NORTHEAST IOWA...


CITY           SKY/WX    TMP DP  RH WIND       PRES   REMARKS
DECORAH          N/A    N/A N/A N/A MISG        N/A
MASON CITY     PTCLDY    66  56  70 CALM      30.01R
CHARLES CITY   MOCLDY    66  59  77 CALM      30.00R
OELWEIN          N/A    N/A N/A N/A E3        30.00S
$$

...ELSEWHERE IN IOWA...


CITY           SKY/WX    TMP DP  RH WIND       PRES   REMARKS
DES MOINES     CLOUDY    67  54  63 VRB3      29.97R
IOWA CITY      CLOUDY    66  55  67 NE5       29.98S
FORT DODGE     MOCLDY    64  52  63 SE5       29.99S
$$

...NORTHERN ILLINOIS...


CITY           SKY/WX    TMP DP  RH WIND       PRES   REMARKS
CHICAGO-OHARE  CLOUDY    59  49  69 NE8       29.99R
CHICAGO-MIDWAY CLOUDY    62  51  67 NE13      29.98R
MOLINE         CLOUDY    68  56  65 NE3       29.96R
ROCKFORD       CLOUDY    64  53  67 E6        29.99R
PEORIA         CLOUDY    70  57  63 N3        29.94R
$$

NOTE: "FAIR" INDICATES FEW OR NO CLOUDS BELOW 12,000 FEET WITH NO
SIGNIFICANT WEATHER AND/OR OBSTRUCTIONS TO VISIBILITY. WIND
SPEEDS ARE IN MILES-PER-HOUR.



USA.gov is the U.S. government's official web portal to all federal, state and local government web resources and services.